Location: Newark
(7.0858°N, 171.3717°E)
Time: 20:01:34
(UTC+00:00)

Tiros 1 - Pass Details

Date: 03 December 2020
Orbit: 630 x 663 km, 48.4° (Epoch: 18 January)

Event Time Altitude Azimuth Distance (km) Brightness Sun altitude
Rises 00:15:24 0° 236° (SW) 2,964 10.7 60.7°
Reaches altitude 10° 00:17:54 10° 245° (WSW) 2,057 10.0 60.7°
Maximum altitude 00:22:13 35° 311° (NW) 1,060 8.5 60.8°
Drops below altitude 10° 00:26:35 10° 17° (NNE) 2,066 9.6 60.8°
Sets 00:29:06 0° 26° (NNE) 2,979 10.3 60.8°
